Location: Azat
(46.0765°N, 1.7600°E)
Time: 09:39:24
(UTC+00:00)

Cosmos 1980 Rocket - Pass Details

Date: 09 April 2020
Orbit: 828 x 851 km, 71.0° (Epoch: 05 June)

Event Time Altitude Azimuth Distance (km) Brightness Sun altitude
Rises 23:20:53 0° 322° (NW) 3,390 6.1 -35.4°
Reaches altitude 10° 23:23:46 10° 309° (NW) 2,454 5.1 -35.5°
Enters shadow 23:25:54 18° 290° (WNW) 1,930 4.3 -35.5°
